Regional Weather Roundup
Issued by NWS

Home | Current Version | Previous Version | Text Only | Print | Product List | Glossary Off
Versions: 1 2 3 4 5 6 7 8 9 10 11 12 13 14 15 16 17 18 19 20 21 22 23 24 25 26 27 28 29 30 31 32 33 34 35 36 37 38 39 40 41 42 43 44 45 46 47 48 49 50

000
ASUS43 KLMK 241702
RWRKY
KENTUCKY REGIONAL WEATHER ROUNDUP
NATIONAL WEATHER SERVICE LOUISVILLE KY
100 PM EDT SUN MAY 24 2015

NOTE "FAIR" INDICATES FEW OR NO CLOUDS BELOW 12,000 FEET
WITH NO SIGNIFICANT WEATHER AND/OR OBSTRUCTIONS TO VISIBILITY.

KYZ001>023-026-027-061>063-070>075-241800-
WESTERN AND SOUTH CENTRAL KENTUCKY

CITY           SKY/WX    TMP DP  RH WIND       PRES   REMARKS
PADUCAH        SUNNY     83  62  49 S16G22    30.11F
HENDERSON      CLOUDY    81  59  47 S14       30.14S
OWENSBORO      PTSUNNY   83  61  47 S15       30.17F
HOPKINSVILLE   MOSUNNY   81  63  54 SE13      30.17S
BOWLING GREEN  MOSUNNY   81  60  48 S14G20    30.22F
GLASGOW        NOT AVBL
$$

KYZ024-025-028>034-038-045-046-053-241800-
NORTH CENTRAL KENTUCKY

CITY           SKY/WX    TMP DP  RH WIND       PRES   REMARKS
LOUISVILLE/SDF PTSUNNY   82  54  37 SE17      30.21F
LOUISVILLE/LOU MOSUNNY   81  53  37 SE16G22   30.22F
FORT KNOX      MOSUNNY   80  57  45 S13       30.20F
$$

KYZ035>037-039>044-047>052-055>060-089>105-241800-
NORTHEAST KENTUCKY

CITY           SKY/WX    TMP DP  RH WIND       PRES   REMARKS
LEXINGTON      SUNNY     80  52  37 S16G22    30.27F
COVINGTON      PTSUNNY   79  54  41 S12G17    30.25F
FRANKFORT      SUNNY     81  53  37 S13       30.24F
$$

KYZ054-064>069-076>088-106>120-241800-
SOUTHEAST KENTUCKY

CITY           SKY/WX    TMP DP  RH WIND       PRES   REMARKS
JACKSON        SUNNY     78  53  41 VRB3      30.32F
LONDON         SUNNY     79  46  31 S10       30.31F
SOMERSET       NOT AVBL
MIDDLESBORO    NOT AVBL
MONTICELLO     SUNNY     80  57  45 SE9       30.31F
$$



USA.gov is the U.S. government's official web portal to all federal, state and local government web resources and services.